Location: Milano
(45.4670°N, 9.2000°E)
Time: 07:59:58
(UTC+02:00)

X-37B - Pass Details

Date: 07 August 2021
Orbit: 381 x 393 km, 45.0° (Epoch: 29 August)

Event Time Altitude Azimuth Distance (km) Brightness Sun altitude
Exits shadow 04:33:16 37° 253° (WSW) 607 1.1 -15.4°
Maximum altitude 04:34:21 78° 173° (S) 393 0.4 -15.3°
Drops below altitude 10° 04:37:29 10° 87° (E) 1,398 4.1 -14.9°
Sets 04:39:33 0° 86° (E) 2,251 5.3 -14.6°
